Regional Weather Roundup
Issued by NWS

Home | Current Version | Previous Version | Text Only | Print | Product List | Glossary Off
Versions: 1 2 3 4 5 6 7 8 9 10 11 12 13 14 15 16 17 18 19 20 21 22 23 24 25 26 27 28 29 30 31 32 33 34 35 36 37 38 39 40 41 42 43 44 45 46 47 48 49 50

433
ASUS43 KFSD 202310
RWRSD

WEATHER ROUNDUP FOR SOUTH DAKOTA
NATIONAL WEATHER SERVICE SIOUX FALLS SD
600 PM CDT WED SEP 20 2017

NOTE: "FAIR" INDICATES FEW OR NO CLOUDS BELOW 12,000 FEET WITH NO
SIGNIFICANT WEATHER AND/OR OBSTRUCTIONS TO VISIBILITY.


SDZ001>005-009-010-012>017-210000-
NORTHWEST AND NORTH CENTRAL SOUTH DAKOTA

CITY           SKY/WX    TMP DP  RH WIND       PRES   REMARKS
BUFFALO          N/A     68  26  20 SW16      29.63S
FAITH            N/A     72  24  16 SW12      29.73R
MOBRIDGE       SUNNY     73  36  25 SW13      29.73R
$$

SDZ012>016-024>037-041>051-057-063-072>074-210000-
SOUTHWEST AND SOUTH CENTRAL SOUTH DAKOTA

CITY           SKY/WX    TMP DP  RH WIND       PRES   REMARKS
RAPID CTY ARPT SUNNY     73  28  19 W16G24    29.74S
PIERRE         SUNNY     75  23  14 SW15G21   29.74S
CUSTER         SUNNY     63  23  21 SW14G35   29.83S
ELLSWORTH AFB  SUNNY     74  28  18 W15G22    29.73S
PHILIP         SUNNY     78  26  14 SW14G28   29.73S
PINE RIDGE     SUNNY     75  33  21 S17G25    29.79
SPEARFISH      FAIR      68  25  19 SW16G35   29.74S
WINNER         FAIR      76  32  20 SW13      29.81S
$$

SDZ004>011-016>023-039-040-210000-
NORTHEAST SOUTH DAKOTA

CITY           SKY/WX    TMP DP  RH WIND       PRES   REMARKS
ABERDEEN       SUNNY     73  36  25 S10       29.78R
WATERTOWN      SUNNY     68  43  40 S10       29.83R
BROOKINGS      SUNNY     71  42  35 SW8       29.86R
SISSETON         N/A     71  40  32 SW13      29.81R
$$

SDZ017-020-022-023-036>040-048>070-210000-
SOUTHEAST SOUTH DAKOTA

CITY           SKY/WX    TMP DP  RH WIND       PRES   REMARKS
SIOUX FALLS    SUNNY     70  51  51 S6        29.86R
HURON          SUNNY     73  41  31 S10       29.80S
CHAMBERLAIN    SUNNY     78  32  18 SW14      29.81R
MITCHELL       SUNNY     75  42  30 S9        29.82S
YANKTON        SUNNY     72  46  39 S6        29.86S
$$

ABBREVIATIONS USED IN REMARKS
   TC - TEMPERATURE IN CELSIUS
  WCI - WIND CHILL INDEX
   HX - HEAT INDEX
  VSB - VISIBILITY





USA.gov is the U.S. government's official web portal to all federal, state and local government web resources and services.